Simultaneous Nadir Overpasses (SNOs) Predictions

Prediction of SNOs between NOAA-19 and NPP Satellite Orbit:

Table of predicted SNOs for the next 14.0 days since TLE Epoch: 6/22/2012
Index Date (NOAA-19) Time (NOAA-19) NOAA-19 Lat,Lon Date (NPP) Time (NPP) NPP Lat,Lon Distance(km) Time Diff (sec)
1 07/03/2012 11:12:24 80.65, -35.39 07/03/2012 11:13:31 80.65, -35.46 1.44 67
2 07/03/2012 12:03:32 -80.66, 131.73 07/03/2012 12:04:16 -80.65, 131.90 3.13 44
3 07/03/2012 12:54:26 80.59, -59.82 07/03/2012 12:54:58 80.59, -59.89 1.31 32
4 07/03/2012 13:45:30 -80.51, 108.65 07/03/2012 13:45:40 -80.52, 108.47 3.26 10
5 07/03/2012 14:36:27 80.50, -83.93 07/03/2012 14:36:24 80.50, -83.99 1.16 3
6 07/03/2012 15:27:31 -80.42, 84.51 07/03/2012 15:27:06 -80.43, 84.35 3.10 25
7 07/03/2012 16:18:28
